User: anonymous   Login
Location: Mississauga
(43.5802°N, 79.6166°W)
Time: 23:28:51
(UTC-05:00)
Language:

Cosmos 1437 Rocket - Orbit

View from above orbital plane
View from above orbital plane
View from above satellite
View from above satellite

Ground track
Ground track

The orbit data is extracted from the following two-line orbital elements,

1 13771U 83003B   17055.27659871  .00000784  00000-0  46433-4 0  9999
2 13771  81.1358 132.9941 0039802  23.1695 337.1313 15.09596549856759
Epoch (UTC): 24 February 2017 06:38:18
Eccentricity: 0.0039802
inclination: 81.1358°
perigee height: 510 km
apogee height: 565 km
right ascension of ascending node: 132.9941°
argument of perigee: 23.1695°
revolutions per day: 15.09596549
mean anomaly at epoch: 337.1313°
orbit number at epoch: 85675

The dashed part of the orbit path shows where the satellite is in the earth's shadow,  

DLR